www.pogodaiklimat.ru

Погода и климат >> Архив погоды >> Норвегия >> Марстейн


ПОГОДА в Марстейне

  • Прогноз погоды в Марстейне
  • Монитор погоды в Марстейне

АРХИВ ПОГОДЫ в Марстейне

Время (UTC), дата Ветер
(напр.,м/с)
 
Видим.   Явления Облачность Т
(С)
Тd
(С)
f
(%)
Тe
(С)
Тes
(С)
Комфортность P
(гПа)
Po
(гПа)
Тmin
(С)
Tmax
(С)
R
(мм)
R24
(мм)
S
(см)
13 18.08 Ю 3
{9}
н/о н/о +20.4 +2.7 31 +21 +21 комфорт 996.9 989.5 0.1
14 18.08 Ю 1
{10}
н/о н/о +21.6 +4.2 32 +22 +22 комфорт 996.4 989.0 0.1
15 18.08 Ю 2
{6}
н/о н/о +19.8 +2.7 32 +21 +21 комфорт 996.2 988.8
16 18.08 СЗ 1
{3}
н/о н/о +17.4 +8.6 56 +18 +18 996.2 988.7
17 18.08 С 1
{3}
н/о н/о +15.9 +9.8 67 +17 +17 996.1 988.6
18 18.08 С 1
{10}
н/о н/о +14.7 +10.7 77 +15 +15 996.3 988.7 +12.3 +21.9 0.8
19 18.08 Ю 1
{2}
н/о н/о +12.9 +10.1 83 +13 +13 996.6 989.0
20 18.08 ЮВ 1
{2}
н/о н/о +11.9 +9.8 87 +12 +12 996.8 989.2
21 18.08 Ю 1
{2}
н/о н/о +11.9 +10.3 90 +12 +12 997.2 989.5
22 18.08 С 1
{3}
н/о н/о +12.3 +10.2 87 +12 +12 997.0 989.4 0.1
23 18.08 Ю 2
{3}
н/о н/о +11.1 +9.4 89 +10 +10 996.9 989.2
00 19.08 Ю 2
{5}
н/о н/о +13.8 +8.0 68 +13 +13 996.8 989.2 0.1
01 19.08 Ю 3
{6}
н/о н/о +13.8 +7.6 66 +13 +13 996.5 988.9 0.1
02 19.08 Ю 3
{7}
н/о н/о +13.6 +7.4 66 +13 +13 996.5 988.9 0.1
03 19.08 Ю 2
{6}
н/о н/о +13.4 +7.0 65 +13 +13 996.4 988.8
04 19.08 Ю 3
{6}
н/о н/о +13.2 +7.0 66 +12 +12 996.5 988.9
05 19.08 Ю 3
{6}
н/о н/о +12.2 +7.3 72 +11 +11 996.5 988.9
06 19.08 ЮВ 2
{7}
н/о н/о +12.3 +7.6 73 +11 +11 996.2 988.6 +11.0 +14.7 0.4
07 19.08 С 1
{4}
н/о н/о +12.2 +8.5 78 +12 +12 995.5 987.9
08 19.08
{2}
н/о н/о +16.5 +9.7 64 995.0 987.5
09 19.08 ЮВ 2
{6}
н/о н/о +18.9 +9.1 53 +20 +20 994.6 987.2 0.1
10 19.08 ЮВ 2
{10}
н/о н/о +18.7 +5.2 41 +20 +20 994.9 987.4 0.1
11 19.08 СВ 1
{9}
н/о н/о +18.5 +9.0 54 +20 +20 995.8 988.3 0.1
12 19.08 СЗ 2
{10}
н/о н/о +20.1 +9.1 49 +22 +22 комфорт 996.2 988.8 0.1
13 19.08 СВ 2
{3}
н/о н/о +20.3 +9.3 49 +22 +22 комфорт 996.8 989.4 0.1
14 19.08 СЗ 2
{4}
н/о н/о +19.0 +9.2 53 +20 +20 997.4 989.9 0.1
15 19.08 СВ 1
{4}
н/о н/о +18.7 +11.5 63 +20 +20 998.1 990.6
16 19.08 С 2
{4}
н/о н/о +17.3 +10.9 66 +18 +18 998.7 991.3
17 19.08 С 1
{3}
н/о н/о +17.0 +11.7 71 +18 +18 999.4 991.9
18 19.08 Ю 1
{4}
н/о н/о +15.0 +11.6 80 +16 +16 999.9 992.3 +12.2 +21.0 0.6
19 19.08 ЮЗ 1
{2}
н/о н/о +13.6 +11.1 85 +14 +14 1000.1 992.5
20 19.08 В 1
{2}
н/о н/о +12.9 +10.6 86 +13 +13 1000.6 993.0
21 19.08 Ю 2
{4}
н/о н/о +14.4 +8.6 68 +14 +14 1001.2 993.6 0.1
22 19.08 штиль 0
{5}
н/о н/о +12.4 +9.2 81 +12 +12 1001.7 994.0
23 19.08 Ю 1
{3}
н/о н/о +12.1 +8.8 80 +12 +12 1001.9 994.2
00 20.08 Ю 2
{5}
н/о н/о +12.6 +8.1 74 +12 +12 1002.0 994.3
01 20.08 Ю 1
{3}
н/о н/о +12.4 +7.7 73 +13 +13 1002.3 994.6
02 20.08 СВ 1
{2}
н/о н/о +10.9 +8.8 87 +11 +11 1002.6 994.9
03 20.08 СЗ 1
{3}
н/о н/о +10.9 +8.8 87 +11 +11 1003.2 995.5
04 20.08 ЮВ 1
{3}
н/о н/о +10.5 +8.9 90 +10 +10 1003.6 995.9
05 20.08 СВ 1
{2}
н/о н/о +10.4 +9.0 91 +10 +10 1004.2 996.5
06 20.08 штиль 0
{3}
н/о н/о +11.8 +10.4 91 +11 +11 1004.8 997.1 +10.4 +15.0 0.1
07 20.08 С 1
{2}
н/о н/о +13.6 +10.8 83 +14 +14 1005.5 997.8
08 20.08 СВ 1
{2}
н/о н/о +14.6 +10.4 76 +15 +15 1005.8 998.2
09 20.08 СЗ 1
{2}
н/о н/о +15.3 +11.3 77 +16 +16 1006.0 998.4
10 20.08 З 1
{2}
н/о н/о +16.3 +10.4 68 +17 +17 1006.4 998.8
11 20.08 СЗ 3
{6}
н/о н/о +17.1 +10.3 64 +17 +17 1006.9 999.3
12 20.08 СЗ 3
{7}
н/о н/о +16.5 +10.1 66 +16 +16 1007.7 1000.1 0.1
13 20.08 СЗ 3
{6}
н/о н/о +16.6 +10.7 68 +16 +16 1008.3 1000.7
14 20.08 С 3
{6}
н/о н/о +16.5 +10.1 66 +16 +16 1008.7 1001.1 0.2
15 20.08 С 2
{5}
н/о н/о +14.8 +11.6 81 +14 +14 1009.6 1001.9 0.3
16 20.08 С 1
{4}
н/о н/о +14.6 +11.6 82 +15 +15 1010.5 1002.8 0.1
17 20.08 СЗ 2
{5}
н/о н/о +13.9 +11.1 83 +13 +13 1011.2 1003.5
18 20.08 З 1
{6}
н/о н/о +12.6 +10.7 88 +13 +13 1011.6 1003.9 +11.8 +17.6 0.7
19 20.08 З 1
{4}
н/о н/о +12.4 +10.8 90 +12 +12 1012.6 1004.8
20 20.08 З 1
{3}
н/о н/о +11.9 +10.6 92 +12 +12 1013.3 1005.5
21 20.08 штиль 0
{2}
н/о н/о +11.4 +10.3 93 +11 +11 1014.0 1006.2
22 20.08 В 1
{2}
н/о н/о +11.5 +10.6 94 +11 +11 1014.7 1006.9 0.1
23 20.08 С 2
{4}
н/о н/о +10.8 +9.9 94 +9 +9 1015.1 1007.3
00 21.08 В 1
{4}
н/о н/о +10.8 +10.0 95 +10 +10 1015.4 1007.6
01 21.08 Ю 1
{4}
н/о н/о +10.8 +9.9 94 +10 +10 1015.9 1008.1
02 21.08 С 1
{3}
н/о н/о +10.2 +9.3 94 +10 +10 1016.6 1008.8
03 21.08 Ю 1
{2}
н/о н/о +9.5 +8.6 94 +9 +9 1017.0 1009.1
04 21.08 С 1
{3}
н/о н/о +9.2 +8.3 94 +8 +8 1017.5 1009.6
05 21.08 В 1
{2}
н/о н/о +9.7 +8.9 95 +9 +9 1018.2 1010.3
06 21.08 Ю 1
{4}
н/о н/о +10.5 +9.6 94 +10 +10 1019.1 1011.2 +9.2 +12.6 0.1
07 21.08 С 2
{3}
н/о н/о +11.3 +9.6 89 +10 +10 1019.6 1011.8
08 21.08 С 1
{3}
н/о н/о +12.6 +9.4 81 +13 +13 1020.0 1012.2
09 21.08 С 1
{3}
н/о н/о +13.7 +8.6 71 +14 +14 1020.0 1012.2
10 21.08 С 1
{4}
н/о н/о +15.5 +8.5 63 +16 +16 1020.1 1012.4
11 21.08 СВ 1
{4}
н/о н/о +16.0 +7.5 57 +17 +17 1020.2 1012.5
12 21.08 СЗ 2
{4}
н/о н/о +14.9 +7.2 60 +15 +15 1020.3 1012.6
13 21.08 СЗ 3
{5}
н/о н/о +15.3 +6.9 57 +15 +15 1020.4 1012.7 0.1
14 21.08 С 2
{5}
н/о н/о +15.2 +7.3 59 +15 +15 1020.7 1013.0
15 21.08 СЗ 2
{5}
н/о н/о +14.9 +6.7 58 +15 +15 1020.9 1013.1
16 21.08 С 2
{5}
н/о н/о +14.7 +7.3 61 +14 +14 1020.9 1013.1
17 21.08
{4}
н/о н/о +14.4 +7.7 64 1021.0 1013.2
18 21.08 С 1
{5}
н/о н/о +13.4 +7.8 69 +14 +14 1021.0 1013.2 +10.5 +16.1
19 21.08 С 1
{3}
н/о н/о +12.4 +8.3 76 +12 +12 1020.9 1013.1
20 21.08 Ю 1
{2}
н/о н/о +9.2 +7.5 89 +9 +9 1020.9 1013.0
21 21.08 СВ 1
{3}
н/о н/о +8.3 +7.2 93 +7 +7 1021.0 1013.1
22 21.08 ЮВ 1
{3}
н/о н/о +7.7 +6.8 94 +7 +7 1021.0 1013.0
23 21.08 Ю 2
{5}
н/о н/о +8.9 +6.7 86 +7 +7 1020.5 1012.6
00 22.08 Ю 2
{6}
н/о н/о +8.7 +5.6 81 +7 +7 1020.4 1012.5
01 22.08 Ю 1
{5}
н/о н/о +8.2 +5.0 80 +8 +8 1020.1 1012.2
02 22.08 Ю 2
{4}
н/о н/о +8.7 +4.9 77 +7 +7 1019.9 1012.0
03 22.08 Ю 1
{5}
н/о н/о +8.1 +4.7 79 +7 +7 1019.2 1011.3
04 22.08 ЮВ 1
{5}
н/о н/о +9.0 +4.8 75 +9 +9 1018.4 1010.5
05 22.08 ЮВ 3
{6}
н/о н/о +10.7 +4.4 65 +9 +9 1017.6 1009.8
06 22.08 Ю 3
{7}
н/о н/о +11.0 +4.7 65 +9 +9 1017.0 1009.2 +7.3 +13.4
07 22.08 ЮВ 2
{8}
н/о н/о +11.5 +5.2 65 +11 +11 1016.2 1008.4
08 22.08 Ю 3
{6}
н/о н/о +13.2 +5.4 59 +12 +12 1015.4 1007.6
09 22.08 Ю 4
{7}
н/о н/о +13.7 +5.9 59 +12 +12 1014.5 1006.8
10 22.08 Ю 5
{8}
н/о н/о +14.6 +6.5 58 +13 +13 1013.4 1005.7
11 22.08 ЮВ 3
{11}
н/о н/о +16.9 +5.2 46 +17 +17 1012.1 1004.5
12 22.08 Ю 4
{11}
н/о н/о +16.8 +5.8 48 +16 +16 1011.6 1004.0
13 22.08 ЮВ 3
{9}
н/о н/о +16.3 +7.3 55 +16 +16 1011.9 1004.3
14 22.08 Ю 3
{8}
н/о н/о +17.6 +7.7 52 +18 +18 1011.5 1003.9 0.1
15 22.08 Ю 3
{7}
н/о н/о +17.3 +7.4 52 +17 +17 1010.9 1003.3
16 22.08 Ю 1
{6}
н/о н/о +16.8 +8.8 59 +18 +18 1010.5 1002.9
17 22.08 штиль 0
{2}
н/о н/о +16.1 +11.5 74 +16 +16 1010.4 1002.8
18 22.08 ЮВ 1
{9}
н/о н/о +12.8 +10.3 85 +13 +13 1010.8 1003.1 +10.8 +17.9 0.1
19 22.08 штиль 0
{2}
н/о н/о +12.1 +10.4 89 +12 +12 1011.6 1003.8
20 22.08 З 1
{7}
н/о н/о +12.7 +9.4 80 +13 +13 1012.1 1004.4
21 22.08 З 1
{4}
н/о н/о +12.1 +9.7 85 +12 +12 1012.6 1004.8
22 22.08 ЮЗ 1
{4}
н/о н/о +12.1 +9.8 86 +12 +12 1012.6 1004.8
23 22.08 С 1
{2}
н/о н/о +11.4 +10.0 91 +11 +11 1012.3 1004.5
00 23.08 ЮВ 1
{7}
н/о н/о +11.4 +10.2 92 +11 +11 1011.8 1004.0 0.2
01 23.08 В 1
{2}
н/о н/о +10.9 +9.8 93 +10 +10 1010.9 1003.1
02 23.08
{2}
н/о н/о +10.6 +9.7 94 1010.3 1002.5
03 23.08 СЗ 1
{3}
н/о н/о +10.7 +9.8 94 +10 +10 1010.0 1002.2
04 23.08 СВ 1
{3}
н/о н/о +10.5 +9.4 93 +10 +10 1010.8 1003.0 0.5
05 23.08 Ю 1
{2}
н/о н/о +10.1 +9.0 93 +10 +10 1010.5 1002.7 0.1
06 23.08 Ю 2
{4}
н/о н/о +10.8 +9.4 91 +9 +9 1011.0 1003.2 +10.0 +14.4 0.8
07 23.08 З 1
{2}
н/о н/о +11.8 +10.2 90 +12 +12 1011.5 1003.7
08 23.08 Ю 2
{3}
н/о н/о +12.9 +9.9 82 +12 +12 1011.9 1004.2
09 23.08 штиль 0
{4}
н/о н/о +13.9 +11.1 83 +14 +14 1012.6 1004.9
10 23.08 С 1
{2}
н/о н/о +14.4 +10.2 76 +15 +15 1013.3 1005.6 0.1
11 23.08 СЗ 1
{2}
н/о н/о +14.5 +10.7 78 +15 +15 1014.1 1006.4
12 23.08 С 1
{4}
н/о н/о +15.0 +10.8 76 +16 +16 1014.8 1007.1
13 23.08 С 2
{3}
н/о н/о +14.5 +11.1 80 +14 +14 1015.6 1007.9
14 23.08 С 2
{4}
н/о н/о +14.4 +11.2 81 +14 +14 1016.4 1008.7
15 23.08 СЗ 1
{3}
н/о н/о +14.7 +11.5 81 +15 +15 1016.7 1009.0
16 23.08 СЗ 1
{2}
н/о н/о +14.5 +11.1 80 +15 +15 1017.0 1009.3
17 23.08 штиль 0
{2}
н/о н/о +14.4 +11.6 83 +14 +14 1017.6 1009.9
18 23.08 С 1
{4}
н/о н/о +13.9 +11.4 85 +14 +14 1018.3 1010.5 +10.8 +15.0 0.1
19 23.08 СЗ 1
{2}
н/о н/о +13.0 +11.4 90 +13 +13 1019.0 1011.2
20 23.08 штиль 0
{2}
н/о н/о +12.2 +10.9 92 +12 +12 1019.6 1011.8
21 23.08 ЮВ 1
{2}
н/о н/о +11.8 +10.7 93 +12 +12 1020.1 1012.3
22 23.08 В 1
{2}
н/о н/о +10.6 +9.5 93 +10 +10 1020.5 1012.6
23 23.08 Ю 1
{1}
н/о н/о +10.1 +9.2 94 +10 +10 1020.8 1012.9
00 24.08 штиль 0
{4}
н/о н/о +9.8 +8.9 94 +9 +9 1021.0 1013.1
01 24.08 ЮВ 1
{2}
н/о н/о +10.4 +9.6 95 +10 +10 1021.2 1013.3
02 24.08 Ю 2
{5}
н/о н/о +11.4 +9.8 90 +10 +10 1021.4 1013.5
03 24.08 Ю 1
{3}
н/о н/о +11.9 +9.5 85 +12 +12 1022.1 1014.3 0.1
04 24.08 ЮВ 2
{5}
н/о н/о +11.6 +9.7 88 +10 +10 1022.5 1014.6 0.1
05 24.08 ЮВ 1
{4}
н/о н/о +11.6 +10.0 90 +11 +11 1022.7 1014.8 0.2
06 24.08 ЮВ 1
{5}
н/о н/о +12.0 +10.2 89 +12 +12 1022.8 1015.0 +9.3 +13.9 0.5
07 24.08 СВ 1
{4}
н/о н/о +12.8 +10.7 87 +13 +13 1022.9 1015.1
08 24.08 Ю 2
{5}
н/о н/о +14.4 +10.0 75 +14 +14 1022.8 1015.0
09 24.08 ЮВ 2
{5}
н/о н/о +15.4 +9.8 69 +15 +15 1022.9 1015.1
10 24.08 ЮВ 2
{7}
н/о н/о +15.7 +10.7 72 +16 +16 1022.8 1015.1
11 24.08 ЮВ 2
{5}
н/о н/о +17.0 +10.8 67 +17 +17 1022.2 1014.5
12 24.08 ЮВ 3
{7}
н/о н/о +18.2 +11.8 66 +19 +19 1021.5 1013.8
13 24.08 ЮВ 2
{5}
н/о н/о +18.8 +11.6 63 +20 +20 1021.0 1013.3
14 24.08 ЮВ 2
{6}
н/о н/о +19.0 +11.6 62 +20 +20 1020.4 1012.8
15 24.08 ЮВ 1
{5}
н/о н/о +17.8 +13.1 74 +19 +19 1020.4 1012.7 0.1
16 24.08 ЮВ 1
{5}
н/о н/о +16.7 +14.4 86 +18 +18 1020.8 1013.1 0.4
17 24.08 В 1
{4}
н/о н/о +16.4 +14.4 88 +17 +17 1019.8 1012.1
18 24.08 С 1
{6}
н/о н/о +16.0 +14.4 90 +17 +17 1019.2 1011.5 +12.0 +19.3 0.5
19 24.08 ЮВ 1
{2}
н/о н/о +15.3 +14.0 92 +16 +16 1019.3 1011.6 0.3
20 24.08 Ю 3
{5}
н/о н/о +16.0 +12.9 82 +16 +16 1019.1 1011.4
21 24.08 Ю 4
{6}
н/о н/о +17.5 +12.0 70 +17 +17 1018.9 1011.2
22 24.08 Ю 3
{6}
н/о н/о +18.1 +11.2 64 +18 +18 1018.7 1011.0
23 24.08 ЮВ 3
{7}
н/о н/о +19.3 +10.8 58 +21 +21 комфорт 1018.4 1010.8
00 25.08 Ю 4
{7}
н/о н/о +19.2 +10.5 57 +20 +20 1018.2 1010.6
01 25.08 Ю 4
{7}
н/о н/о +19.2 +10.8 58 +20 +20 1018.2 1010.6
02 25.08 Ю 4
{6}
н/о н/о +18.3 +11.2 63 +18 +18 1018.0 1010.4
03 25.08 ЮВ 2
{6}
н/о н/о +17.7 +11.5 67 +18 +18 1017.8 1010.1
04 25.08 С 1
{4}
н/о н/о +17.2 +11.7 70 +18 +18 1017.7 1010.0
05 25.08 СВ 1
{3}
н/о н/о +16.2 +12.0 76 +17 +17 1017.3 1009.6
06 25.08 Ю 2
{7}
н/о н/о +15.5 +12.8 84 +15 +15 1017.8 1010.1 +14.7 +19.6 0.4
07 25.08 Ю 2
{4}
н/о н/о +15.4 +13.4 88 +15 +15 1018.1 1010.4 0.3
08 25.08 Ю 2
{4}
н/о н/о +16.2 +13.9 86 +16 +16 1018.5 1010.8 0.1
09 25.08 ЮВ 2
{4}
н/о н/о +17.7 +14.0 79 +18 +18 1018.3 1010.6
10 25.08 Ю 1
{3}
н/о н/о +19.4 +13.1 67 +22 +22 комфорт 1018.3 1010.7
11 25.08 ЮВ 1
{3}
н/о н/о +18.6 +13.7 73 +20 +20 1018.7 1011.1
12 25.08 ЮВ 2
{11}
н/о н/о +20.1 +9.7 51 +22 +22 комфорт 1018.6 1011.0

 

Местоположение метеостанции Марстейн (Норвегия): широта 62.45 долгота 7.85 высота над уровнем моря 67 м.

В архиве по умолчанию представлена погода в Марстейне за последнюю неделю. Архивные данные за месяц целиком и за предыдущие месяцы, начиная с января 2011 года, Вы можете получить, выбрав интересующий диапазон дат из раскрывающегося списка и нажав кнопку "Ввод!".


*Определитесь, кто Вы:
робот инопланетянин человек

Внимание! Время в таблицах - всемирное. Для получения местного времени необходимо прибавить поправку, которая равна 1 ч.

Смотрите также архив погоды в соседних городах и на ближайших метеорологических станциях:

Погода на Маннене (Норвегия) (4 км)
Погода в Бьорли (Норвегия) (28 км)
Погода в Тафьорде (Норвегия) (33 км)
Погода в Молдэ аэропорту (Норвегия) (45 км)
Погода в Гротли (Норвегия) (49 км)
Погода в Лебергсфелле (Норвегия) (51 км)
Погода в Тингволл-Ханеме (Норвегия) (56 км)
Погода в Рекдале (Норвегия) (60 км)
Погода в Брате (Норвегия) (61 км)
Погода в Кристиансунн аэропорту (Норвегия) (73 км)

Пояснения к столбцам:

Ветер - указаны скорость ветра в м/с - средняя за 10 мин, порывы в срок и между сроками (в фигурных скобках) и направление, откуда дует ветер: С - северный, СВ - северо-восточный, В - восточный, ЮВ - юго-восточный, Ю - южный, ЮЗ - юго-западный, З - западный, СЗ - северо-западный.
Видимость - горизонтальная дальность видимости в метрах или километрах. При видимости от 1 до 10 км при отсутствии осадков обычно наблюдается дымка, при ухудшении видимости до 1 км и менее - туман. В сухую погоду видимость может ухудшаться дымом, пылью или мглою.
Явления - указаны атмосферные явления, наблюдавшиеся в срок или в последний час перед сроком; фигурными скобками обозначены явления, наблюдавшиеся между сроками (за 1-3 часа до срока); квадратными скобками обозначены град или гололедные отложения с указанием их диаметра в мм.
Облачность - указаны через наклонную черту общая и нижняя облачность в баллах и высота нижней границы облаков в метрах; квадратными скобками обозначены формы облаков: Ci - перистые, Cs - перисто-слоистые, Cc - перисто-кучевые, Ac - высококучевые, As - высокослоистые, Sc - слоисто-кучевые, Ns - слоисто-дождевые, Cu - кучевые, Cb - кучево-дождевые. Подробнее классификацию облаков см. в Атласе облаков (PDF).
T - Температура воздуха - температура, измеренная на высоте 2 м над землей.
Td - Температура точки росы - температура, при понижении до которой содержащийся в воздухе водяной пар достигнет насыщения.
f - Относительная влажность воздуха - влажноcть воздуха, измеренная на высоте 2 м над землей.
Te - Эффективная температура - температура, которую ощущает одетый по сезону человек в тени. Характеристика душности погоды. При расчете учитывается влияние влажности воздуха и скорости ветра на теплоощущения человека.
Tes - Эффективная температура на солнце - температура, которую ощущает человек, с поправкой на солнечный нагрев. Характеристика знойности погоды. Зависит от высоты солнца над горизонтом, облачности и скорости ветра. Ночью, в пасмурную погоду, а также при ветре 12 м/с и более поправка равна нулю.
P - Атмосферное давление - приведенное к уровню моря атмосферное давление.
Po - Атмосферное давление - измеренное на уровне метеостанции атмосферное давление.
Tmin - Минимальная температура - минимум температуры воздуха на высоте 2 м над землей.
Tmax - Максимальная температура - максимум температуры воздуха на высоте 2 м над землей.
R - Количество осадков - Количество выпавших осадков за период времени, мм. При наведении курсора мыши на число - период времени, за который выпало указанное количество осадков.
R24 - Количество осадков - Количество выпавших осадков за 24 часа, мм.
S - Снежный покров - Высота снежного покрова, см. При наведении курсора мыши на число - состояние снежного покрова и степень покрытия местности в баллах.